This demonstration page uses our WeatherBlox Daily Observations layout. Learn more.

41.55636, -103.73856

Hourly Observations for December 6, 2015

Temp ( °F °C ) Dew Point ( °F °C ) Humidity (%) Winds ( mph kmh ) Pressure ( in mb ) Visibility ( mi km ) Precip ( " mm )
12:53 am 00:53 Clear 25 -4 18 -8 74 74 N 6 9 30.59 1036 10 16.09344 0 0
1:53 am 01:53 Clear 19 -7 14 -10 79 79 N 6 9 30.65 1038 10 16.09344 0 0
2:53 am 02:53 Clear 21 -6 16 -9 80 80 N 5 7 30.59 1036 10 16.09344 0 0
3:53 am 03:53 Clear 19 -7 12 -11 73 73 Calm 30.59 1036 10 16.09344 0 0
4:53 am 04:53 Clear 18 -8 12 -11 79 79 ESE 3 6 30.62 1037 10 16.09344 0 0
5:53 am 05:53 Clear 18 -8 10 -12 73 73 E 7 11 30.62 1037 10 16.09344 0 0
6:53 am 06:53 Clear 18 -8 10 -12 73 73 E 5 7 30.59 1036 10 16.09344 0 0
7:53 am 07:53 Sunny 21 -6 16 -9 80 80 ENE 3 6 30.56 1035 10 16.09344 0 0
8:53 am 08:53 Sunny 30 -1 19 -7 64 64 Calm 30.48 1032 10 16.09344 0 0
9:53 am 09:53 Sunny 37 3 19 -7 48 48 Calm 30.36 1028 10 16.09344 0 0
10:53 am 10:53 Sunny 45 7 18 -8 34 34 E 5 7 30.27 1025 10 16.09344 0 0
11:53 am 11:53 Sunny 52 11 12 -11 20 20 Calm 30.18 1022 10 16.09344 0 0
12:53 pm 12:53 Sunny 55 13 10 -12 16 16 ESE 3 6 30.09 1019 10 16.09344 0 0
1:53 pm 13:53 Sunny 57 14 9 -13 14 14 SSW 6 9 30.03 1017 10 16.09344 0 0
2:53 pm 14:53 Sunny 55 13 9 -13 15 15 SSW 7 11 30.03 1017 10 16.09344 0 0
3:53 pm 15:53 Sunny 50 10 9 -13 19 19 SE 8 13 30.09 1019 10 16.09344 0 0
4:53 pm 16:53 Clear 46 8 5 -15 18 18 SSE 6 9 30.12 1020 10 16.09344 0 0
5:53 pm 17:53 Clear 36 2 9 -13 32 32 ESE 6 9 30.21 1023 10 16.09344 0 0
6:53 pm 18:53 Clear 39 4 12 -11 33 33 NNW 5 7 30.18 1022 10 16.09344 0 0
7:53 pm 19:53 Clear 30 -1 14 -10 51 51 NNW 8 13 30.27 1025 10 16.09344 0 0
8:53 pm 20:53 Clear 30 -1 14 -10 51 51 NW 5 7 30.27 1025 10 16.09344 0 0
9:53 pm 21:53 Clear 34 1 12 -11 41 41 WNW 9 15 30.24 1024 10 16.09344 0 0
10:53 pm 22:53 Clear 43 6 12 -11 29 29 NW 15 24 30.15 1021 10 16.09344 0 0
11:53 pm 23:53 Clear 43 6 10 -12 26 26 NW 8 13 30.15 1021 10 16.09344 0 0

Powered by AerisWeather